Weather History for Roosevelt Roads, PR

Change the Weather History Date:

Friday, June 15, 2012

  Actual Average Record
Temperature  
Mean Temperature 84 °F -  
Max Temperature 89 °F 84 °F 91 °F (2002)
Min Temperature 78 °F 74 °F 35 °F (2003)
Cooling Degree Days 18    
Growing Degree Days 34 (Base 50)    
Moisture  
Dew Point 73 °F    
Average Humidity 69    
Maximum Humidity 82    
Minimum Humidity 55    
Precipitation  
Precipitation 0.00 in - - ()
Sea Level Pressure  
Sea Level Pressure 30.01 in    
Wind  
Wind Speed 7 mph (ESE)    
Max Wind Speed 16 mph    
Max Gust Speed 21 mph    
Visibility 10 miles    
Events      
Averages and records for this station are not official NWS values.
T = Trace of Precipitation, MM = Missing Value Source: NWS Daily Summary

Daily Weather History Graph

Daily Weather History Graph

Search for Another Location

Airport:

Trip Planner

Search our weather history database for the weather conditions in past years. The results will help you decide how hot, cold, wet, or windy it might be!

Date:

Astronomy

Jun. 15, 2012 Rise Set
Actual Time 5:46 AM AST 6:59 PM AST
Civil Twilight 5:22 AM AST 7:24 PM AST
Nautical Twilight 4:53 AM AST 7:52 PM AST
Astronomical Twilight 4:23 AM AST 8:22 PM AST
Moon 2:40 AM AST (6/15) 3:50 PM AST (6/15)
Length of Visible Light 14h 01m
Length of Day
13h 13m
Waning Crescent, 14% of the Moon is Illuminated
Jun 15
Waning Crescent
Jun 19
New
Jun 26
First Quarter
Jul 3
Full
Jul 10
Last Quarter

Hourly Weather History & Observations

Time (AST) Temp. Heat Index Dew Point Humidity Pressure Visibility Wind Dir Wind Speed Gust Speed Precip Events Conditions
12:53 AM 81.0 °F 85.8 °F 73.0 °F 77% 30.03 in 10.0 mi East 5.8 mph - N/A   Overcast
1:53 AM 81.0 °F 85.8 °F 73.0 °F 77% 30.01 in 10.0 mi East 6.9 mph - N/A   Overcast
2:53 AM 80.1 °F 84.2 °F 73.0 °F 79% 30.01 in 10.0 mi ESE 3.5 mph - N/A   Overcast
3:53 AM 79.0 °F - 73.0 °F 82% 29.99 in 10.0 mi Calm Calm - N/A   Overcast
4:53 AM 79.0 °F - 73.0 °F 82% 30.00 in 10.0 mi ENE 4.6 mph - N/A   Overcast
5:53 AM 78.1 °F - 72.0 °F 81% 30.01 in 10.0 mi Calm Calm - N/A   Overcast
6:53 AM 81.0 °F 86.2 °F 73.9 °F 79% 30.01 in 10.0 mi ENE 3.5 mph - N/A   Overcast
7:53 AM 82.9 °F 89.4 °F 73.9 °F 74% 30.03 in 10.0 mi East 4.6 mph - N/A   Overcast
8:53 AM 84.9 °F 90.7 °F 72.0 °F 65% 30.04 in 10.0 mi ESE 10.4 mph - N/A   Overcast
9:53 AM 86.0 °F 93.0 °F 73.0 °F 65% 30.04 in 10.0 mi ESE 10.4 mph - N/A   Overcast
10:53 AM 88.0 °F 95.6 °F 73.0 °F 61% 30.04 in 10.0 mi ESE 12.7 mph 18.4 mph N/A   Overcast
11:53 AM 89.1 °F 97.0 °F 73.0 °F 59% 30.03 in 10.0 mi ESE 11.5 mph - N/A   Overcast
12:00 PM 87.8 °F 95.6 °F 73.4 °F 62% 30.03 in 10.0 mi ESE 11.5 mph - N/A   Overcast
12:35 PM 89.6 °F 98.2 °F 73.4 °F 59% 30.01 in 10.0 mi ESE 16.1 mph - N/A   Scattered Clouds
12:51 PM 89.6 °F 96.2 °F 71.6 °F 55% 30.00 in 10.0 mi ESE 15.0 mph 19.6 mph N/A   Mostly Cloudy
12:53 PM 89.1 °F 95.0 °F 71.1 °F 55% 30.01 in 10.0 mi East 12.7 mph 19.6 mph N/A   Mostly Cloudy
1:53 PM 89.1 °F 96.0 °F 72.0 °F 57% 30.00 in 10.0 mi ESE 12.7 mph 20.7 mph N/A   Overcast
2:14 PM 87.8 °F 93.8 °F 71.6 °F 58% 29.99 in 10.0 mi ESE 12.7 mph 20.7 mph N/A   Overcast
2:53 PM 89.1 °F 96.0 °F 72.0 °F 57% 29.99 in 10.0 mi ESE 10.4 mph - N/A   Overcast
3:53 PM 88.0 °F 94.7 °F 72.0 °F 59% 29.98 in 10.0 mi ESE 11.5 mph 17.3 mph N/A   Overcast
4:53 PM 86.0 °F 92.2 °F 72.0 °F 63% 29.97 in 10.0 mi ESE 10.4 mph - N/A   Overcast
5:53 PM 84.0 °F 90.2 °F 73.0 °F 69% 29.98 in 10.0 mi East 8.1 mph - N/A   Overcast
6:24 PM 82.4 °F 87.2 °F 71.6 °F 70% 29.98 in 10.0 mi East 6.9 mph - N/A   Overcast
6:53 PM 82.0 °F 87.4 °F 73.0 °F 74% 29.99 in 10.0 mi East 6.9 mph - N/A   Overcast
7:53 PM 82.0 °F 87.4 °F 73.0 °F 74% 30.01 in 10.0 mi ESE 4.6 mph - N/A   Overcast
8:53 PM 82.0 °F 87.4 °F 73.0 °F 74% 30.02 in 10.0 mi ESE 5.8 mph - N/A   Overcast
9:53 PM 81.0 °F 86.2 °F 73.9 °F 79% 30.03 in 10.0 mi ESE 8.1 mph - N/A   Overcast
10:53 PM 81.0 °F 85.8 °F 73.0 °F 77% 30.01 in 10.0 mi East 6.9 mph - N/A   Overcast
11:53 PM 81.0 °F 85.8 °F 73.0 °F 77% 30.01 in 10.0 mi East 4.6 mph - N/A   Overcast